User: anonymous   Login
Location: Altleiningen
(49.5078°N, 8.0741°E)
Time: 22:43:46
(UTC+00:00)
Language:

USA 305 - Orbit

View from above orbital plane
View from above orbital plane
View from above satellite
View from above satellite

Ground track
Ground track

The orbit data is extracted from the following two-line orbital elements,

1 45873U 20046A   21127.89825309 0.00002300  00000-0  18814-3 0    09
2 45873  53.9733  80.4788 0003835   4.2159 355.7840 14.98890119    06
Epoch (UTC): 07 May 2021 21:33:29
Eccentricity: 0.0003835
inclination: 53.9733°
perigee height: 567 km
apogee height: 573 km
right ascension of ascending node: 80.4788°
argument of perigee: 4.2159°
revolutions per day: 14.98890119
mean anomaly at epoch: 355.7840°
orbit number at epoch: 0

The dashed part of the orbit path shows where the satellite is in the earth's shadow,  

DLR